Wilbur Observed Data For Previous 48 Hours

Caption
Day and Hour Reservoir Elevation (behind dam)* Tailwater Elevation (below dam)* Average Hourly Discharge*
4/22/2018 2 AM EDT 1,648.81 1,586.60 2,760
4/22/2018 3 AM EDT 1,648.78 1,586.59 2,760
4/22/2018 4 AM EDT 1,648.76 1,586.60 2,760
4/22/2018 5 AM EDT 1,648.75 1,586.58 2,760
4/22/2018 6 AM EDT 1,648.74 1,586.60 2,760
4/22/2018 7 AM EDT 1,648.73 1,586.61 2,756
4/22/2018 8 AM EDT 1,648.82 1,586.56 2,759
4/22/2018 9 AM EDT 1,648.90 1,586.60 2,768
4/22/2018 10 AM EDT 1,648.97 1,586.60 2,775
4/22/2018 11 AM EDT 1,649.03 1,586.63 2,780
4/22/2018 12 PM EDT 1,649.09 1,586.58 2,789
4/22/2018 1 PM EDT 1,649.14 1,586.60 2,791
4/22/2018 2 PM EDT 1,648.97 1,586.64 2,786
4/22/2018 3 PM EDT 1,648.83 1,586.61 2,773
4/22/2018 4 PM EDT 1,648.74 1,586.58 2,760
4/22/2018 5 PM EDT 1,648.71 1,586.58 2,752
4/22/2018 6 PM EDT 1,648.67 1,586.55 2,750
4/22/2018 7 PM EDT 1,648.69 1,586.62 2,750
4/22/2018 8 PM EDT 1,648.74 1,586.59 2,751
4/22/2018 9 PM EDT 1,648.78 1,586.61 2,760
4/22/2018 10 PM EDT 1,648.84 1,586.61 2,761
4/22/2018 11 PM EDT 1,648.89 1,586.62 2,770
4/23/2018 12 AM EDT 1,648.90 1,586.60 2,770
4/23/2018 1 AM EDT 1,648.93 1,586.61 2,770
4/23/2018 2 AM EDT 1,648.81 1,586.58 2,768
4/23/2018 3 AM EDT 1,648.73 1,586.62 2,760
4/23/2018 4 AM EDT 1,648.62 1,586.58 2,749
4/23/2018 5 AM EDT 1,648.52 1,586.60 2,739
4/23/2018 6 AM EDT 1,648.43 1,586.60 2,730
4/23/2018 7 AM EDT 1,648.45 1,586.56 2,727
4/23/2018 8 AM EDT 1,648.52 1,586.61 2,730
4/23/2018 9 AM EDT 1,648.57 1,586.59 2,737
4/23/2018 10 AM EDT 1,648.59 1,586.55 2,740
4/23/2018 11 AM EDT 1,648.62 1,586.58 2,740
4/23/2018 12 PM EDT 1,648.65 1,586.59 2,745
4/23/2018 1 PM EDT 1,648.67 1,586.60 2,750
4/23/2018 2 PM EDT 1,648.71 1,586.62 2,750
4/23/2018 3 PM EDT 1,648.72 1,586.59 2,750
4/23/2018 4 PM EDT 1,648.74 1,586.61 2,753
4/23/2018 5 PM EDT 1,648.76 1,586.58 2,760
4/23/2018 6 PM EDT 1,648.78 1,586.62 2,760
4/23/2018 7 PM EDT 1,648.75 1,586.60 2,760
4/23/2018 8 PM EDT 1,648.80 1,586.59 2,760
4/23/2018 9 PM EDT 1,648.81 1,586.60 2,760
4/23/2018 10 PM EDT 1,648.82 1,586.61 2,760
4/23/2018 11 PM EDT 1,648.83 1,586.62 2,760
4/24/2018 12 AM EDT 1,648.87 1,586.62 2,769
4/24/2018 1 AM EDT 1,648.88 1,586.63 2,770
4/24/2018 2 AM EDT 1,648.89 1,586.63 2,770
4/24/2018 3 AM EDT 1,648.61 1,586.59 2,757
4/24/2018 4 AM EDT 1,648.37 1,586.58 2,731
4/24/2018 5 AM EDT 1,648.14 1,586.53 2,707
4/24/2018 6 AM EDT 1,647.99 1,586.55 2,687
4/24/2018 7 AM EDT 1,647.83 1,586.55 2,672
4/24/2018 8 AM EDT 1,648.02 1,586.55 2,673
4/24/2018 9 AM EDT 1,648.12 1,586.58 2,688
4/24/2018 10 AM EDT 1,647.98 1,586.54 2,686
4/24/2018 11 AM EDT 1,647.83 1,586.52 2,671
4/24/2018 12 PM EDT 1,647.69 1,586.53 2,656
4/24/2018 1 PM EDT 1,647.55 1,586.52 2,642
4/24/2018 2 PM EDT 1,647.45 1,586.52 2,629
4/24/2018 3 PM EDT 1,647.39 - 999.00 2,620
4/24/2018 4 PM EDT 1,647.32 - 999.00 2,613
4/24/2018 5 PM EDT 1,647.36 1,585.09 2,610
4/24/2018 6 PM EDT 1,648.59 1,582.61 238
4/24/2018 7 PM EDT 1,649.22 1,585.24 719
4/24/2018 8 PM EDT 1,648.73 1,585.29 1,592
4/24/2018 9 PM EDT 1,648.30 1,585.26 1,600
4/24/2018 10 PM EDT 1,647.89 1,585.29 1,595

Elevations are in feet above sea level. Discharges are in cubic feet per second and are reported at the end of the hour.